Location: Northam
(31.6525°S, 116.6655°E)
Time: 11:16:56
(UTC+08:00)

X-37B - Pass Details

Date: 25 January 2021
Orbit: 383 x 391 km, 45.0° (Epoch: 27 February)

Event Time Altitude Azimuth Distance (km) Brightness Sun altitude
Exits shadow 03:05:34 18° 103° (ESE) 1,043 3.3 -26.5°
Drops below altitude 10° 03:06:36 10° 111° (ESE) 1,429 4.2 -26.3°
Sets 03:08:45 0° 118° (ESE) 2,288 5.6 -26.0°
